Simultaneous Nadir Overpasses (SNOs) Predictions

Prediction of SNOs between GOES-15 and METOP-B Satellite Orbit:

Table of predicted SNOs for the next 14.0 days since TLE Epoch: 1/6/2024
Index Date Time (GOES-15) GOES-15 Lat,Lon METOP-B Lat,Lon Distance(km) Time Diff (sec)
1 01/06/2024 17:11:38 0.06, 61.45 0.46, 63.30 210.64 80
2 01/08/2024 05:30:33 -0.05, 61.44 0.58, 58.72 310.60 80
3 01/09/2024 05:12:37 -0.05, 61.46 -0.55, 63.70 255.04 80
4 01/10/2024 17:31:41 0.04, 61.52 -0.49, 59.08 278.30 80
5 01/11/2024 17:08:23 0.05, 61.55 0.59, 64.07 285.94 80
6 01/13/2024 05:27:19 -0.04, 61.56 0.44, 59.48 237.34 80
7 01/14/2024 05:09:22 -0.04, 61.58 -0.70, 64.46 327.93 80
8 01/15/2024 17:28:25 0.02, 61.64 -0.39, 59.85 204.71 80
9 01/16/2024 17:05:09 0.03, 61.67 0.75, 64.82 359.43 80
10 01/18/2024 05:24:03 -0.02, 61.70 0.33, 60.25 165.21 80
11 01/19/2024 05:06:07 -0.03, 61.72 -0.82, 65.23 399.71 80
